Regional Weather Roundup
Issued by NWS

Home | Current Version | Previous Version | Text Only | Print | Product List | Glossary On
Versions: 1 2 3 4 5 6 7 8 9 10 11 12 13 14 15 16 17 18 19 20 21 22 23 24 25 26 27 28 29 30 31 32 33 34 35 36 37 38 39 40 41 42 43 44 45 46 47 48 49 50
939
ASUS44 KJAN 260210
RWRMS

MISSISSIPPI HOURLY WEATHER ROUNDUP
NATIONAL WEATHER SERVICE JACKSON MS
800 PM CST TUE NOV 25 2014

NOTE: "FAIR: INDICATES FEW OR NO CLOUDS BELOW 12,000 FEET WITH NO
SIGNIFICANT WEATHER AND/OR OBSTRUCTIONS TO VISIBILITY.

MSZ001>002-007>008-010>013-018>021-025>028-034>036-260300-
NORTHWEST MISSISSIPPI

CITY           SKY/WX    TMP DP  RH WIND       PRES   REMARKS
CLARKSDALE     FAIR      39  30  70 CALM      30.22S
CLEVELAND      FAIR      38  32  78 CALM      30.22R
GREENWOOD      CLEAR     33  29  85 CALM      30.22R
GREENVILLE     CLEAR     40  30  67 CALM      30.22R
GRENADA        FAIR      34  32  93 CALM      30.22S
OLIVE BRANCH   MOCLDY    36  30  80 CALM      30.21R
OXFORD         FAIR      32  27  80 CALM      30.22R
TUNICA         CLEAR     39  30  70 CALM      30.23R
$$

MSZ003>006-009-014>017-022>024-029>033-037>039-260300-
NORTHEAST MISSISSIPPI

CITY           SKY/WX    TMP DP  RH WIND       PRES   REMARKS
COLUMBUS AFB   CLOUDY    44  29  56 NW2       30.20R
CORINTH        FAIR      37  27  65 NW3       30.18S
GOLDN TRIANGLE PTCLDY    43  30  61 NW5       30.19
STARKVILLE     FAIR      43  32  65 NW3       30.20R
TUPELO         MOCLDY    42  24  49 NW6       30.19R
$$

MSZ040-058-260300-
CENTRAL MISSISSIPPI

CITY           SKY/WX    TMP DP  RH WIND       PRES   REMARKS
JACKSON INTL   PTCLDY    40  28  62 CALM      30.22R
JACKSON HAWKNS CLEAR     41  29  62 CALM      30.22S
MERIDIAN KEY   CLOUDY    45  29  53 N3        30.19R
MERIDIAN NAS   CLOUDY    46  30  53 NW6       30.21R
RAYMOND        FAIR      36  32  87 MISG      30.23S
VICKSBURG      CLEAR     33  29  85 CALM      30.25R
$$

MSZ059>079-260300-
SOUTH MISSISSIPPI

CITY           SKY/WX    TMP DP  RH WIND       PRES   REMARKS
BROOKHAVEN     FAIR      39  34  81 CALM      30.23R
COLUMBIA       FAIR      45  34  65 MISG        N/A
HATTIESBURG    CLOUDY    49  30  48 NW9       30.19S
MCCOMB         CLEAR     41  31  67 CALM      30.21S
NATCHEZ        CLEAR     37  30  75 CALM      30.25R
PINE BELT      CLOUDY    46  27  46 NW7       30.20S
$$

MSZ080>082-260300-
COASTAL MISSISSIPPI

CITY           SKY/WX    TMP DP  RH WIND       PRES   REMARKS
BAY ST LOUIS   PTCLDY    50  30  46 N7        30.21S
BILOXI         CLOUDY    52  36  54 NW13      30.18R
PASCAGOULA     CLOUDY    52  35  52 NW6       30.17R
GULFPORT       CLOUDY    51  35  54 NW12      30.19R
$$



USA.gov is the U.S. government's official web portal to all federal, state and local government web resources and services.